| time (UTC) | temp C | wind direction | speed KPH | gust KPH | rain 1hr cm | rain 24hr cm | rain mn cm | humidity % | barometer mb |
| 20260505163036 | 7 | 229 | 1.6 | 4.8 | 0.00 | 1.02 | 0.86 | 46 | 1008.3 |
| 20260505162031 | 8 | 272 | 4.8 | 9.7 | 0.00 | 1.02 | 0.86 | 44 | 1008.2 |
| 20260505161026 | 8 | 260 | 8.0 | 14.5 | 0.00 | 1.02 | 0.86 | 41 | 1007.9 |
| 20260505153027 | 9 | 256 | 11.3 | 22.5 | 0.00 | 1.02 | 0.86 | 39 | 1007.8 |
| 20260505152023 | 8 | 256 | 8.0 | 14.5 | 0.00 | 1.02 | 0.86 | 45 | 1008.0 |
| 20260505151018 | 7 | 249 | 12.9 | 22.5 | 0.00 | 1.02 | 0.86 | 49 | 1008.0 |
| 20260505125033 | 7 | 230 | 6.4 | 11.3 | 0.00 | 1.04 | 0.86 | 54 | 1007.4 |
| 20260505124028 | 7 | 245 | 6.4 | 14.5 | 0.00 | 1.04 | 0.86 | 56 | 1007.3 |
| 20260505123024 | 7 | 233 | 6.4 | 20.9 | 0.00 | 1.04 | 0.86 | 56 | 1007.4 |
| 20260505122020 | 8 | 234 | 9.7 | 20.9 | 0.00 | 1.04 | 0.86 | 53 | 1007.4 |
| 20260505121035 | 7 | 247 | 8.0 | 16.1 | 0.00 | 1.04 | 0.86 | 57 | 1007.4 |
| 20260505120030 | 6 | 226 | 4.8 | 12.9 | 0.00 | 1.04 | 0.86 | 63 | 1007.3 |
| 20260505115026 | 6 | 238 | 8.0 | 17.7 | 0.00 | 1.04 | 0.86 | 64 | 1007.3 |
| 20260505114021 | 6 | 251 | 11.3 | 22.5 | 0.00 | 1.04 | 0.86 | 59 | 1007.3 |
| 20260505113022 | 6 | 240 | 8.0 | 17.7 | 0.00 | 1.04 | 0.86 | 65 | 1007.2 |
| 20260505112032 | 7 | 262 | 11.3 | 24.1 | 0.00 | 1.04 | 0.86 | 54 | 1007.0 |
| 20260505111028 | 8 | 249 | 6.4 | 12.9 | 0.00 | 1.04 | 0.86 | 49 | 1006.7 |
| 20260505102046 | 8 | 249 | 9.7 | 16.1 | 0.00 | 1.04 | 0.86 | 52 | 1006.7 |
| 20260505101020 | 7 | 256 | 8.0 | 16.1 | 0.00 | 1.04 | 0.86 | 52 | 1006.7 |
| 20260505100017 | 8 | 241 | 3.2 | 6.4 | 0.00 | 1.04 | 0.86 | 52 | 1006.5 |
| 20260505095031 | 8 | 251 | 9.7 | 16.1 | 0.00 | 1.04 | 0.86 | 50 | 1006.7 |
| 20260505094148 | 7 | 280 | 9.7 | 27.4 | 0.00 | 1.04 | 0.86 | 54 | 1006.6 |
| 20260505093022 | 7 | 277 | 6.4 | 14.5 | 0.00 | 1.04 | 0.86 | 52 | 1006.6 |
| 20260505092017 | 7 | 251 | 4.8 | 9.7 | 0.00 | 1.04 | 0.86 | 55 | 1006.6 |
| 20260505091034 | 7 | 258 | 6.4 | 14.5 | 0.00 | 1.04 | 0.86 | 54 | 1006.6 |
| 20260505090029 | 7 | 276 | 6.4 | 12.9 | 0.00 | 1.04 | 0.86 | 54 | 1006.6 |
| 20260505085044 | 6 | 258 | 6.4 | 14.5 | 0.00 | 1.04 | 0.86 | 56 | 1006.5 |
| 20260505084024 | 7 | 277 | 6.4 | 11.3 | 0.00 | 1.04 | 0.86 | 56 | 1006.3 |
| 20260505083035 | 7 | 252 | 8.0 | 20.9 | 0.00 | 1.04 | 0.86 | 55 | 1006.3 |
| 20260505082031 | 7 | 280 | 4.8 | 12.9 | 0.00 | 1.04 | 0.86 | 56 | 1006.3 |
| 20260505081027 | 6 | 259 | 4.8 | 12.9 | 0.00 | 1.04 | 0.86 | 57 | 1006.1 |
| 20260505080022 | 6 | 274 | 6.4 | 16.1 | 0.00 | 1.04 | 0.86 | 60 | 1006.0 |
| 20260505075017 | 6 | 277 | 8.0 | 17.7 | 0.00 | 1.04 | 0.86 | 61 | 1006.1 |
| 20260505074033 | 6 | 246 | 6.4 | 17.7 | 0.00 | 1.04 | 0.86 | 62 | 1006.0 |
| 20260505073027 | 6 | 275 | 8.0 | 17.7 | 0.00 | 1.04 | 0.86 | 63 | 1005.8 |
| 20260505072023 | 6 | 257 | 4.8 | 11.3 | 0.00 | 1.04 | 0.86 | 64 | 1005.9 |
| 20260505071017 | 5 | 280 | 8.0 | 20.9 | 0.00 | 1.04 | 0.86 | 65 | 1005.8 |
| 20260505070033 | 6 | 271 | 4.8 | 12.9 | 0.00 | 1.04 | 0.86 | 66 | 1005.7 |
| 20260505065029 | 5 | 212 | 3.2 | 6.4 | 0.00 | 1.04 | 0.86 | 67 | 1005.7 |
| 20260505064025 | 5 | 243 | 4.8 | 11.3 | 0.00 | 1.04 | 0.86 | 70 | 1005.6 |
| 20260505063020 | 5 | 239 | 3.2 | 6.4 | 0.00 | 1.04 | 0.86 | 72 | 1005.6 |
| 20260505062035 | 4 | 267 | 8.0 | 12.9 | 0.00 | 1.04 | 0.86 | 76 | 1005.6 |
| 20260505061030 | 4 | 266 | 4.8 | 11.3 | 0.00 | 1.04 | 0.86 | 77 | 1005.5 |
| 20260505060025 | 3 | 265 | 4.8 | 9.7 | 0.03 | 1.04 | 0.86 | 78 | 1005.4 |
| 20260505055020 | 3 | 261 | 8.0 | 17.7 | 0.03 | 1.04 | 0.86 | 78 | 1005.2 |
| 20260505054016 | 3 | 247 | 4.8 | 11.3 | 0.03 | 1.04 | 0.86 | 80 | 1005.2 |
| 20260505053031 | 3 | 249 | 4.8 | 14.5 | 0.03 | 1.04 | 0.86 | 81 | 1005.3 |
| 20260505052025 | 3 | 253 | 6.4 | 12.9 | 0.03 | 1.04 | 0.86 | 82 | 1005.0 |
| 20260505051020 | 2 | 256 | 6.4 | 14.5 | 0.03 | 1.04 | 0.86 | 83 | 1004.9 |
| 20260505041033 | 1 | 255 | 6.4 | 12.9 | 0.00 | 1.02 | 0.84 | 93 | 1004.3 |
| 20260505040048 | 1 | 241 | 4.8 | 9.7 | 0.00 | 1.02 | 0.84 | 94 | 1004.2 |
| 20260505035023 | 1 | 249 | 4.8 | 11.3 | 0.00 | 1.02 | 0.84 | 98 | 1004.1 |
| 20260505034119 | 1 | 246 | 4.8 | 6.4 | 0.00 | 1.02 | 0.84 | 99 | 1003.9 |
| 20260505033034 | 1 | 250 | 4.8 | 9.7 | 0.00 | 1.02 | 0.84 | 99 | 1003.9 |
| 20260505032030 | 0 | 224 | 1.6 | 6.4 | 0.00 | 1.02 | 0.84 | 99 | 1003.9 |
| 20260505031025 | 0 | 0.0 | 0.0 | 0.00 | 1.02 | 0.84 | 99 | 1003.7 | |
| 20260505030021 | 0 | 233 | 0.0 | 3.2 | 0.00 | 1.02 | 0.84 | 99 | 1003.7 |
| 20260505025016 | 0 | 175 | 0.0 | 1.6 | 0.00 | 1.02 | 0.84 | 99 | 1003.7 |
| 20260505024031 | 0 | 0.0 | 0.0 | 0.00 | 1.02 | 0.84 | 99 | 1003.6 | |
| 20260505023027 | 0 | 211 | 0.0 | 3.2 | 0.00 | 1.02 | 0.84 | 99 | 1003.6 |
| 20260505022022 | 0 | 209 | 0.0 | 1.6 | 0.00 | 1.02 | 0.84 | 99 | 1003.5 |
| 20260505021017 | 0 | 193 | 0.0 | 1.6 | 0.00 | 1.02 | 0.84 | 99 | 1003.5 |
| 20260505020032 | 0 | 0.0 | 0.0 | 0.00 | 1.02 | 0.84 | 99 | 1003.5 | |
| 20260505015027 | 0 | 0.0 | 0.0 | 0.00 | 1.02 | 0.84 | 99 | 1003.4 | |
| 20260505014023 | 0 | 207 | 0.0 | 1.6 | 0.00 | 1.02 | 0.84 | 99 | 1003.3 |
| 20260505013018 | 0 | 0.0 | 0.0 | 0.00 | 1.02 | 0.84 | 99 | 1003.1 | |
| 20260505012033 | 1 | 0.0 | 0.0 | 0.00 | 1.02 | 0.84 | 99 | 1003.2 | |
| 20260505011028 | 1 | 180 | 0.0 | 1.6 | 0.00 | 1.02 | 0.84 | 99 | 1002.9 |
| 20260505010024 | 1 | 0.0 | 0.0 | 0.00 | 1.02 | 0.84 | 99 | 1003.1 | |
| 20260505005019 | 1 | 0.0 | 0.0 | 0.03 | 1.02 | 0.84 | 99 | 1003.2 | |
| 20260505004034 | 1 | 218 | 1.6 | 3.2 | 0.05 | 1.02 | 0.84 | 99 | 1003.2 |
| 20260505003029 | 1 | 208 | 0.0 | 1.6 | 0.08 | 1.02 | 0.84 | 99 | 1003.0 |
| 20260505002044 | 1 | 0.0 | 0.0 | 0.13 | 1.02 | 0.84 | 99 | 1002.9 | |
| 20260505001020 | 1 | 169 | 0.0 | 1.6 | 0.15 | 1.02 | 0.84 | 99 | 1002.8 |
| 20260505000055 | 1 | 226 | 1.6 | 3.2 | 0.25 | 1.02 | 0.84 | 99 | 1003.1 |
| 20260504235031 | 1 | 233 | 1.6 | 3.2 | 0.33 | 0.99 | 0.81 | 99 | 1003.0 |
| 20260504234027 | 1 | 230 | 1.6 | 3.2 | 0.38 | 0.97 | 0.79 | 99 | 1002.9 |
| 20260504233021 | 1 | 224 | 3.2 | 4.8 | 0.48 | 0.94 | 0.76 | 99 | 1003.1 |
| 20260504232017 | 1 | 233 | 3.2 | 9.7 | 0.51 | 0.89 | 0.71 | 98 | 1003.1 |
| 20260504231032 | 1 | 255 | 3.2 | 9.7 | 0.56 | 0.86 | 0.69 | 98 | 1003.0 |
| 20260504230028 | 2 | 246 | 3.2 | 12.9 | 0.58 | 0.76 | 0.58 | 97 | 1002.8 |
| 20260504225023 | 2 | 226 | 3.2 | 4.8 | 0.53 | 0.66 | 0.48 | 97 | 1002.7 |
| 20260504224019 | 2 | 217 | 1.6 | 6.4 | 0.48 | 0.58 | 0.41 | 97 | 1002.5 |
| 20260504223114 | 3 | 223 | 3.2 | 9.7 | 0.38 | 0.46 | 0.28 | 96 | 1002.5 |
| 20260504222029 | 3 | 265 | 3.2 | 12.9 | 0.36 | 0.38 | 0.20 | 96 | 1002.6 |
| 20260504221025 | 4 | 230 | 3.2 | 12.9 | 0.28 | 0.30 | 0.13 | 95 | 1002.3 |
| 20260504220020 | 4 | 224 | 3.2 | 6.4 | 0.15 | 0.18 | 0.18 | 95 | 1002.1 |
| 20260504215035 | 5 | 174 | 3.2 | 11.3 | 0.10 | 0.13 | 0.13 | 94 | 1002.0 |
| 20260504214031 | 5 | 207 | 1.6 | 3.2 | 0.08 | 0.10 | 0.10 | 93 | 1002.0 |
| 20260504213025 | 6 | 241 | 3.2 | 11.3 | 0.05 | 0.08 | 0.08 | 90 | 1001.9 |
| 20260504212020 | 6 | 242 | 1.6 | 6.4 | 0.00 | 0.03 | 0.03 | 89 | 1001.8 |
| 20260504211016 | 6 | 223 | 1.6 | 3.2 | 0.00 | 0.03 | 0.03 | 90 | 1001.7 |
| 20260504210051 | 6 | 170 | 0.0 | 1.6 | 0.00 | 0.03 | 0.03 | 91 | 1001.4 |
| 20260504205047 | 6 | 163 | 1.6 | 6.4 | 0.00 | 0.03 | 0.03 | 88 | 1001.5 |
| 20260504204022 | 6 | 227 | 3.2 | 6.4 | 0.00 | 0.03 | 0.03 | 88 | 1001.7 |
| 20260504203018 | 6 | 64 | 3.2 | 6.4 | 0.00 | 0.03 | 0.03 | 88 | 1001.2 |
| 20260504202034 | 6 | 24 | 3.2 | 6.4 | 0.00 | 0.03 | 0.03 | 88 | 1001.3 |
| 20260504201029 | 6 | 164 | 3.2 | 4.8 | 0.00 | 0.03 | 0.03 | 87 | 1001.5 |
| 20260504200024 | 6 | 0.0 | 0.0 | 0.00 | 0.03 | 0.03 | 87 | 1001.7 | |
| 20260504195020 | 6 | 154 | 1.6 | 3.2 | 0.00 | 0.03 | 0.03 | 86 | 1001.6 |
| 20260504194015 | 6 | 170 | 1.6 | 4.8 | 0.00 | 0.03 | 0.03 | 85 | 1001.7 |
| 20260504193031 | 7 | 138 | 3.2 | 4.8 | 0.00 | 0.03 | 0.03 | 84 | 1001.8 |
| 20260504192025 | 7 | 116 | 1.6 | 4.8 | 0.00 | 0.03 | 0.03 | 84 | 1002.0 |
| 20260504191022 | 7 | 162 | 1.6 | 3.2 | 0.00 | 0.03 | 0.03 | 82 | 1001.9 |
| 20260504190016 | 7 | 116 | 3.2 | 6.4 | 0.00 | 0.03 | 0.03 | 81 | 1002.0 |
| 20260504185032 | 7 | 150 | 1.6 | 6.4 | 0.00 | 0.03 | 0.03 | 81 | 1001.6 |
| 20260504184027 | 8 | 147 | 1.6 | 4.8 | 0.00 | 0.03 | 0.03 | 80 | 1001.4 |
| 20260504183047 | 8 | 172 | 1.6 | 3.2 | 0.00 | 0.03 | 0.03 | 80 | 1001.1 |
| 20260504182017 | 8 | 128 | 3.2 | 9.7 | 0.00 | 0.03 | 0.03 | 79 | 1001.2 |
| 20260504181032 | 9 | 135 | 3.2 | 11.3 | 0.00 | 0.03 | 0.03 | 76 | 1000.9 |
| 20260504180028 | 10 | 148 | 1.6 | 4.8 | 0.00 | 0.03 | 0.03 | 72 | 1000.8 |
| 20260504175023 | 11 | 148 | 1.6 | 6.4 | 0.00 | 0.03 | 0.03 | 66 | 1000.6 |
| 20260504174018 | 12 | 82 | 3.2 | 6.4 | 0.00 | 0.03 | 0.03 | 58 | 1000.6 |
| 20260504173033 | 13 | 161 | 3.2 | 11.3 | 0.00 | 0.03 | 0.03 | 47 | 1000.6 |
| 20260504172029 | 14 | 248 | 6.4 | 12.9 | 0.00 | 0.03 | 0.03 | 32 | 1000.3 |
| 20260504171024 | 13 | 245 | 4.8 | 12.9 | 0.00 | 0.03 | 0.03 | 33 | 1000.3 |